Time,TemperatureF,DewpointF,PressureIn,WindDirection,WindDirectionDegrees,WindSpeedMPH,WindSpeedGustMPH,Humidity,HourlyPrecipIn,Conditions,Clouds,dailyrainin,SoftwareType,DateUTC
2013-05-02 00:02:00,32.0,29.0,-100.00,NNE,20,4.0,7.0,88,-99.99,,,-99.99,,2013-05-02 05:02:00,
2013-05-02 01:01:00,30.0,28.0,-100.00,NW,320,1.0,2.0,92,-99.99,,,-99.99,,2013-05-02 06:01:00,
2013-05-02 01:12:00,30.0,28.0,-100.00,NW,320,1.0,2.0,92,-99.99,,,-99.99,,2013-05-02 06:12:00,
2013-05-02 01:21:00,30.0,28.0,-100.00,NW,320,1.0,2.0,92,-99.99,,,-99.99,,2013-05-02 06:21:00,
2013-05-02 01:32:00,29.0,28.0,-100.00,North,355,2.0,3.0,96,-99.99,,,-99.99,,2013-05-02 06:32:00,
2013-05-02 01:42:00,29.0,28.0,-100.00,North,355,2.0,3.0,96,-99.99,,,-99.99,,2013-05-02 06:42:00,
2013-05-02 01:52:00,29.0,28.0,-100.00,North,355,2.0,3.0,96,-99.99,,,-99.99,,2013-05-02 06:52:00,
2013-05-02 02:02:00,30.0,30.0,-100.00,NNE,15,7.0,9.0,97,-99.99,,,-99.99,,2013-05-02 07:02:00,
2013-05-02 02:11:00,30.0,30.0,-100.00,NNE,15,7.0,9.0,97,-99.99,,,-99.99,,2013-05-02 07:11:00,
2013-05-02 02:21:00,30.0,30.0,-100.00,NNE,15,7.0,9.0,97,-99.99,,,-99.99,,2013-05-02 07:21:00,
2013-05-02 02:32:00,30.0,29.0,-100.00,NNE,20,6.0,9.0,94,-99.99,,,-99.99,,2013-05-02 07:32:00,
2013-05-02 02:42:00,30.0,29.0,-100.00,NNE,20,6.0,9.0,94,-99.99,,,-99.99,,2013-05-02 07:42:00,
2013-05-02 02:52:00,30.0,29.0,-100.00,NNE,20,6.0,9.0,94,-99.99,,,-99.99,,2013-05-02 07:52:00,
2013-05-02 03:02:00,30.0,29.0,-100.00,NNE,25,7.0,11.0,95,-99.99,,,-99.99,,2013-05-02 08:02:00,
2013-05-02 03:11:00,30.0,29.0,-100.00,NNE,25,7.0,11.0,95,-99.99,,,-99.99,,2013-05-02 08:11:00,
2013-05-02 03:22:00,30.0,29.0,-100.00,NNE,25,7.0,11.0,95,-99.99,,,-99.99,,2013-05-02 08:22:00,
2013-05-02 03:32:00,30.0,29.0,-100.00,NE,35,4.0,9.0,95,-99.99,,,-99.99,,2013-05-02 08:32:00,
2013-05-02 03:42:00,30.0,29.0,-100.00,NE,35,4.0,9.0,95,-99.99,,,-99.99,,2013-05-02 08:42:00,
2013-05-02 03:52:00,30.0,29.0,-100.00,NE,35,4.0,9.0,95,-99.99,,,-99.99,,2013-05-02 08:52:00,
2013-05-02 04:02:00,30.0,29.0,-100.00,NNE,25,4.0,7.0,95,-99.99,,,-99.99,,2013-05-02 09:02:00,
2013-05-02 04:12:00,30.0,29.0,-100.00,NNE,25,4.0,7.0,95,-99.99,,,-99.99,,2013-05-02 09:12:00,
2013-05-02 04:21:00,30.0,29.0,-100.00,NNE,25,4.0,7.0,95,-99.99,,,-99.99,,2013-05-02 09:21:00,
2013-05-02 04:32:00,30.0,28.0,-100.00,NE,35,4.0,6.0,93,-99.99,,,-99.99,,2013-05-02 09:32:00,
2013-05-02 04:42:00,30.0,28.0,-100.00,NE,35,4.0,6.0,93,-99.99,,,-99.99,,2013-05-02 09:42:00,
2013-05-02 04:52:00,30.0,28.0,-100.00,NE,35,4.0,6.0,93,-99.99,,,-99.99,,2013-05-02 09:52:00,
2013-05-02 05:02:00,30.0,27.0,-100.00,NNE,25,4.0,7.0,91,-99.99,,,-99.99,,2013-05-02 10:02:00,
2013-05-02 05:12:00,30.0,27.0,-100.00,NNE,25,4.0,7.0,91,-99.99,,,-99.99,,2013-05-02 10:12:00,
2013-05-02 05:22:00,30.0,27.0,-100.00,NNE,25,4.0,7.0,91,-99.99,,,-99.99,,2013-05-02 10:22:00,
2013-05-02 05:33:00,30.0,28.0,-100.00,North,0,4.0,5.0,92,-99.99,,,-99.99,,2013-05-02 10:33:00,
2013-05-02 05:42:00,30.0,28.0,-100.00,North,0,4.0,5.0,92,-99.99,,,-99.99,,2013-05-02 10:42:00,
2013-05-02 05:53:00,30.0,28.0,-100.00,North,0,4.0,5.0,92,-99.99,,,-99.99,,2013-05-02 10:53:00,
2013-05-02 06:02:00,30.0,28.0,-100.00,North,0,6.0,8.0,92,-99.99,,,-99.99,,2013-05-02 11:02:00,
2013-05-02 06:12:00,30.0,28.0,-100.00,North,0,6.0,8.0,92,-99.99,,,-99.99,,2013-05-02 11:12:00,
2013-05-02 06:22:00,30.0,28.0,-100.00,North,0,6.0,8.0,92,-99.99,,,-99.99,,2013-05-02 11:22:00,
2013-05-02 06:32:00,30.0,29.0,-100.00,NNW,330,7.0,11.0,94,-99.99,,,-99.99,,2013-05-02 11:32:00,
2013-05-02 06:42:00,30.0,29.0,-100.00,NNW,330,7.0,11.0,94,-99.99,,,-99.99,,2013-05-02 11:42:00,
2013-05-02 06:52:00,30.0,29.0,-100.00,NNW,330,7.0,11.0,94,-99.99,,,-99.99,,2013-05-02 11:52:00,
2013-05-02 07:01:00,30.0,27.0,-100.00,NNW,330,8.0,15.0,89,-99.99,,,-99.99,,2013-05-02 12:01:00,
2013-05-02 07:11:00,30.0,27.0,-100.00,NNW,330,8.0,15.0,89,-99.99,,,-99.99,,2013-05-02 12:11:00,
2013-05-02 07:21:00,30.0,27.0,-100.00,NNW,330,8.0,15.0,89,-99.99,,,-99.99,,2013-05-02 12:21:00,
2013-05-02 07:32:00,31.0,27.0,-100.00,NNW,340,11.0,16.0,87,-99.99,,,-99.99,,2013-05-02 12:32:00,
2013-05-02 07:42:00,31.0,27.0,-100.00,NNW,340,11.0,16.0,87,-99.99,,,-99.99,,2013-05-02 12:42:00,
2013-05-02 07:52:00,31.0,27.0,-100.00,NNW,340,11.0,16.0,87,-99.99,,,-99.99,,2013-05-02 12:52:00,
2013-05-02 08:01:00,31.0,27.0,-100.00,NNW,340,11.0,16.0,87,-99.99,,,-99.99,,2013-05-02 13:01:00,
2013-05-02 09:02:00,31.0,27.0,-100.00,North,0,7.0,10.0,86,-99.99,,,-99.99,,2013-05-02 14:02:00,
2013-05-02 09:11:00,31.0,27.0,-100.00,North,0,7.0,10.0,86,-99.99,,,-99.99,,2013-05-02 14:11:00,
2013-05-02 09:22:00,31.0,27.0,-100.00,North,0,7.0,10.0,86,-99.99,,,-99.99,,2013-05-02 14:22:00,
2013-05-02 09:32:00,31.0,26.0,-100.00,NNW,340,10.0,15.0,82,-99.99,,,-99.99,,2013-05-02 14:32:00,
2013-05-02 09:43:00,31.0,26.0,-100.00,NNW,340,10.0,15.0,82,-99.99,,,-99.99,,2013-05-02 14:43:00,
2013-05-02 09:52:00,31.0,26.0,-100.00,NNW,340,10.0,15.0,82,-99.99,,,-99.99,,2013-05-02 14:52:00,
2013-05-02 10:02:00,31.0,25.0,-100.00,NNW,340,12.0,17.0,78,-99.99,,,-99.99,,2013-05-02 15:02:00,
2013-05-02 10:12:00,31.0,25.0,-100.00,NNW,340,12.0,17.0,78,-99.99,,,-99.99,,2013-05-02 15:12:00,
2013-05-02 10:22:00,31.0,25.0,-100.00,NNW,340,12.0,17.0,78,-99.99,,,-99.99,,2013-05-02 15:22:00,
2013-05-02 10:33:00,31.0,24.0,-100.00,NNW,340,12.0,17.0,75,-99.99,,,-99.99,,2013-05-02 15:33:00,
2013-05-02 10:43:00,31.0,24.0,-100.00,NNW,340,12.0,17.0,75,-99.99,,,-99.99,,2013-05-02 15:43:00,
2013-05-02 11:03:00,31.0,24.0,-100.00,NNW,330,10.0,16.0,75,-99.99,,,-99.99,,2013-05-02 16:03:00,
2013-05-02 11:13:00,31.0,24.0,-100.00,NNW,330,10.0,16.0,75,-99.99,,,-99.99,,2013-05-02 16:13:00,
2013-05-02 11:22:00,31.0,24.0,-100.00,NNW,330,10.0,16.0,75,-99.99,,,-99.99,,2013-05-02 16:22:00,
2013-05-02 11:32:00,31.0,24.0,-100.00,NNW,340,11.0,16.0,76,-99.99,,,-99.99,,2013-05-02 16:32:00,
2013-05-02 11:43:00,31.0,24.0,-100.00,NNW,340,11.0,16.0,76,-99.99,,,-99.99,,2013-05-02 16:43:00,
2013-05-02 11:52:00,31.0,24.0,-100.00,NNW,340,11.0,16.0,76,-99.99,,,-99.99,,2013-05-02 16:52:00,
2013-05-02 12:02:00,31.0,24.0,-100.00,NNW,340,11.0,16.0,76,-99.99,,,-99.99,,2013-05-02 17:02:00,
2013-05-02 13:01:00,32.0,25.0,-100.00,North,350,11.0,16.0,75,-99.99,,,-99.99,,2013-05-02 18:01:00,
2013-05-02 13:11:00,32.0,25.0,-100.00,North,350,11.0,16.0,75,-99.99,,,-99.99,,2013-05-02 18:11:00,
2013-05-02 13:21:00,32.0,25.0,-100.00,North,350,11.0,16.0,75,-99.99,,,-99.99,,2013-05-02 18:21:00,
2013-05-02 13:32:00,32.0,24.0,-100.00,NNW,335,12.0,17.0,73,-99.99,,,-99.99,,2013-05-02 18:32:00,
2013-05-02 13:42:00,32.0,24.0,-100.00,NNW,335,12.0,17.0,73,-99.99,,,-99.99,,2013-05-02 18:42:00,
2013-05-02 13:52:00,32.0,24.0,-100.00,NNW,335,12.0,17.0,73,-99.99,,,-99.99,,2013-05-02 18:52:00,
2013-05-02 14:01:00,32.0,25.0,-100.00,NNW,345,12.0,17.0,73,-99.99,,,-99.99,,2013-05-02 19:01:00,
2013-05-02 14:11:00,32.0,25.0,-100.00,NNW,345,12.0,17.0,73,-99.99,,,-99.99,,2013-05-02 19:11:00,
2013-05-02 14:22:00,32.0,25.0,-100.00,NNW,345,12.0,17.0,73,-99.99,,,-99.99,,2013-05-02 19:22:00,
2013-05-02 14:32:00,32.0,25.0,-100.00,North,355,12.0,17.0,75,-99.99,,,-99.99,,2013-05-02 19:32:00,
2013-05-02 14:42:00,32.0,25.0,-100.00,North,355,12.0,17.0,75,-99.99,,,-99.99,,2013-05-02 19:42:00,
2013-05-02 14:52:00,32.0,25.0,-100.00,North,355,12.0,17.0,75,-99.99,,,-99.99,,2013-05-02 19:52:00,
2013-05-02 15:02:00,32.0,25.0,-100.00,North,5,11.0,18.0,74,-99.99,,,-99.99,,2013-05-02 20:02:00,
2013-05-02 15:11:00,32.0,25.0,-100.00,North,5,11.0,18.0,74,-99.99,,,-99.99,,2013-05-02 20:11:00,
2013-05-02 15:22:00,32.0,25.0,-100.00,North,5,11.0,18.0,74,-99.99,,,-99.99,,2013-05-02 20:22:00,
2013-05-02 15:32:00,34.0,26.0,-100.00,NNW,340,9.0,15.0,72,-99.99,,,-99.99,,2013-05-02 20:32:00,
2013-05-02 15:42:00,34.0,26.0,-100.00,NNW,340,9.0,15.0,72,-99.99,,,-99.99,,2013-05-02 20:42:00,
2013-05-02 15:52:00,34.0,26.0,-100.00,NNW,340,9.0,15.0,72,-99.99,,,-99.99,,2013-05-02 20:52:00,
2013-05-02 16:01:00,33.0,26.0,-100.00,NNE,30,11.0,16.0,73,-99.99,,,-99.99,,2013-05-02 21:01:00,
2013-05-02 16:12:00,33.0,26.0,-100.00,NNE,30,11.0,16.0,73,-99.99,,,-99.99,,2013-05-02 21:12:00,
2013-05-02 16:21:00,33.0,26.0,-100.00,NNE,30,11.0,16.0,73,-99.99,,,-99.99,,2013-05-02 21:21:00,
2013-05-02 16:33:00,35.0,27.0,-100.00,NNE,20,9.0,16.0,72,-99.99,,,-99.99,,2013-05-02 21:33:00,
2013-05-02 16:42:00,35.0,27.0,-100.00,NNE,20,9.0,16.0,72,-99.99,,,-99.99,,2013-05-02 21:42:00,
2013-05-02 16:53:00,35.0,27.0,-100.00,NNE,20,9.0,16.0,72,-99.99,,,-99.99,,2013-05-02 21:53:00,
2013-05-02 17:02:00,35.0,26.0,-100.00,North,10,8.0,14.0,71,-99.99,,,-99.99,,2013-05-02 22:02:00,
2013-05-02 17:12:00,35.0,26.0,-100.00,North,10,8.0,14.0,71,-99.99,,,-99.99,,2013-05-02 22:12:00,
2013-05-02 17:22:00,35.0,26.0,-100.00,North,10,8.0,14.0,71,-99.99,,,-99.99,,2013-05-02 22:22:00,
2013-05-02 17:32:00,34.0,26.0,-100.00,North,5,12.0,17.0,71,-99.99,,,-99.99,,2013-05-02 22:32:00,
2013-05-02 17:42:00,34.0,26.0,-100.00,North,5,12.0,17.0,71,-99.99,,,-99.99,,2013-05-02 22:42:00,
2013-05-02 17:52:00,34.0,26.0,-100.00,North,5,12.0,17.0,71,-99.99,,,-99.99,,2013-05-02 22:52:00,
2013-05-02 18:02:00,34.0,26.0,-100.00,NNE,15,12.0,17.0,72,-99.99,,,-99.99,,2013-05-02 23:02:00,
2013-05-02 18:11:00,34.0,26.0,-100.00,NNE,15,12.0,17.0,72,-99.99,,,-99.99,,2013-05-02 23:11:00,
2013-05-02 18:22:00,34.0,26.0,-100.00,NNE,15,12.0,17.0,72,-99.99,,,-99.99,,2013-05-02 23:22:00,
2013-05-02 18:32:00,35.0,26.0,-100.00,NNE,20,9.0,14.0,72,-99.99,,,-99.99,,2013-05-02 23:32:00,
2013-05-02 18:42:00,35.0,26.0,-100.00,NNE,20,9.0,14.0,72,-99.99,,,-99.99,,2013-05-02 23:42:00,
2013-05-02 18:52:00,35.0,26.0,-100.00,NNE,20,9.0,14.0,72,-99.99,,,-99.99,,2013-05-02 23:52:00,
2013-05-02 19:01:00,34.0,26.0,-100.00,North,0,9.0,14.0,72,-99.99,,,-99.99,,2013-05-03 00:01:00,
2013-05-02 19:11:00,34.0,26.0,-100.00,North,0,9.0,14.0,72,-99.99,,,-99.99,,2013-05-03 00:11:00,
2013-05-02 19:21:00,34.0,26.0,-100.00,North,0,9.0,14.0,72,-99.99,,,-99.99,,2013-05-03 00:21:00,
2013-05-02 19:31:00,35.0,27.0,-100.00,North,350,6.0,14.0,73,-99.99,,,-99.99,,2013-05-03 00:31:00,
2013-05-02 19:42:00,35.0,27.0,-100.00,North,350,6.0,14.0,73,-99.99,,,-99.99,,2013-05-03 00:42:00,
2013-05-02 19:52:00,35.0,27.0,-100.00,North,350,6.0,14.0,73,-99.99,,,-99.99,,2013-05-03 00:52:00,
2013-05-02 20:01:00,35.0,27.0,-100.00,North,0,8.0,11.0,72,-99.99,,,-99.99,,2013-05-03 01:01:00,
2013-05-02 20:11:00,35.0,27.0,-100.00,North,0,8.0,11.0,72,-99.99,,,-99.99,,2013-05-03 01:11:00,
2013-05-02 20:21:00,35.0,27.0,-100.00,North,0,8.0,11.0,72,-99.99,,,-99.99,,2013-05-03 01:21:00,
2013-05-02 20:31:00,34.0,27.0,-100.00,NNE,15,6.0,9.0,74,-99.99,,,-99.99,,2013-05-03 01:31:00,
2013-05-02 20:42:00,34.0,27.0,-100.00,NNE,15,6.0,9.0,74,-99.99,,,-99.99,,2013-05-03 01:42:00,
2013-05-02 20:52:00,34.0,27.0,-100.00,NNE,15,6.0,9.0,74,-99.99,,,-99.99,,2013-05-03 01:52:00,
2013-05-02 21:01:00,34.0,27.0,-100.00,NNE,15,6.0,9.0,74,-99.99,,,-99.99,,2013-05-03 02:01:00,
2013-05-02 22:01:00,31.0,28.0,-100.00,NW,325,4.0,6.0,89,-99.99,,,-99.99,,2013-05-03 03:01:00,
2013-05-02 22:11:00,31.0,28.0,-100.00,NW,325,4.0,6.0,89,-99.99,,,-99.99,,2013-05-03 03:11:00,
2013-05-02 22:21:00,31.0,28.0,-100.00,NW,325,4.0,6.0,89,-99.99,,,-99.99,,2013-05-03 03:21:00,
2013-05-02 22:33:00,31.0,28.0,-100.00,NW,325,4.0,6.0,89,-99.99,,,-99.99,,2013-05-03 03:33:00,
2013-05-02 23:03:00,30.0,28.0,-100.00,NNW,330,3.0,5.0,94,-99.99,,,-99.99,,2013-05-03 04:03:00,
2013-05-02 23:12:00,30.0,28.0,-100.00,NNW,330,3.0,5.0,94,-99.99,,,-99.99,,2013-05-03 04:12:00,
2013-05-02 23:23:00,30.0,28.0,-100.00,NNW,330,3.0,5.0,94,-99.99,,,-99.99,,2013-05-03 04:23:00,
2013-05-02 23:32:00,29.0,29.0,-100.00,NNW,330,3.0,4.0,97,-99.99,,,-99.99,,2013-05-03 04:32:00,
2013-05-02 23:43:00,29.0,29.0,-100.00,NNW,330,3.0,4.0,97,-99.99,,,-99.99,,2013-05-03 04:43:00,
2013-05-02 23:53:00,29.0,29.0,-100.00,NNW,330,3.0,4.0,97,-99.99,,,-99.99,,2013-05-03 04:53:00,